STARLINK-11437, 62884

Orbit data source: Space-Track

STARLINK-11437, 62884 is a payload satellite owned by SpaceX/Seattle (US) in LEO that was launched on Tue, 04 Feb 2025 UTC via an FALCON 9 launch vehicle from the Air Force Eastern Test Range (AFETR). Payload-class satellites include a variety of spacecraft equipped with specific instruments for various scientific and technological missions. These include communications satellites like Starlink; space stations such as the ISS; scientific satellites like the Hubble; Earth observation satellites from companies like Planet Labs, Umbra, and HawkEye 360; GPS; miniature CubeSats for education and research; and military/defense satellites.

Loading next visibility...
Identifier
62884, 2025-024F
Orbit
LEO
Last TLE update
14 hours ago
Origin
Manufacturer
SpaceX/Seattle
Mission
Operational Commercial Communications
Bus & Motor
STARLINK V2M, Unknown motor
Mass
730 kg wet, ~700 kg dry
Launch date (UTC)
2025-02-04 (5 months ago)
Launch vehicle
FALCON 9
Launch site
Air Force Eastern Test Range (AFETR)
Object type
Payload
Rocket body
Debris
Shape & HBR
Box + 2 Pan, 29 m
Radar Cross Section
36.964 m², Large (>1 m²)

Expand to show TLE details & history

TLE from 14 hours ago
0 STARLINK-11437
1 62884U 25024F   25191.42932042  .00120745  00000-0  92897-3 0  9992
2 62884  43.0016 201.8741 0003138 275.7294  84.3216 15.70885507 25364
Epoch: 2025-07-10T10:18Z
TLE epoch observation values (Epoch: 2025-07-10T10:18:13.284Z)
Latitude
Longitude
118.72302°
Altitude
355.928 km
Speed
7.698 km/s
True Right ascension
13h 27m 29s
True Declination
0° 00' 00"
Sunlit
Object was in daylight at epoch
Visualization orbit readout
Latitude
39.01916°
Longitude
-124.62358°
Altitude
360.232 km
Speed
7.698 km/s
Apparent Right ascension
22h 56m 45s
Apparent Declination
0° 56' 51"
Sunlit
Object is in full shadow
Visualization observer readout
Local Sidereal Time
12:47:10
Azimuth
38.56° NE
Elevation
-41.987°
Doppler factor
1
Orbital elements
Apogee altitude
360.46 km
Perigee altitude
356.232 km
Semi-major axis
6,736.483 km
Eccentricity
0.00031
Inclination
43.0016°
RAAN
201.8741°
Arg. of periapsis
275.7294°
True anomaly
Unknown
Mean anomaly
84.3216°
Eccentric anomaly
Unknown
Mean motion
3.92548 °/min
Orbital period
91.71 mins
BSTAR
0.00092897
Loading maneuver chart data...
Loading SW <> Apogee altitude chart data...
Loading historical data...
Loading historical data...
Loading historical data...
Loading historical data...
Loading historical data...
Loading historical data...
Loading historical data...

STARLINK-11437 Visibility forecast

Observer location: undefined°, undefined°

Span
Click to sort rows by Start time (UTC) header in descending order
Start Az.
Max El. time (UTC)
Max El. Az.
Max El.
End time (UTC)
End Az.
4 mins2025-07-11 04:52:55.898Z239.698° WSW2025-07-11 04:53:55.898Z195.845° SSW43.791°2025-07-11 04:56:55.898Z73.697° E
4 mins2025-07-11 06:28:55.898Z297.119° NW2025-07-11 06:29:55.898Z332.743° NNW33.51°2025-07-11 06:32:55.898Z69.989° E
4 mins2025-07-11 08:04:55.898Z296.312° NW2025-07-11 08:06:55.898Z55.423° ENE40.276°2025-07-11 08:08:55.898Z95.222° ESE
|